Weather Roundup
Issued by NWS Corpus Christi, TX

Home | Current Version | Previous Version | Text Only | Print | Product List | Glossary On
Versions: 1 2 3 4 5 6 7 8 9 10 11 12 13 14 15 16 17 18 19 20 21 22 23 24 25 26 27 28 29 30 31 32 33 34 35 36 37 38 39 40 41 42 43 44 45 46 47 48 49 50
000
ASUS44 KCRP 280110
HRRCRP

SOUTH TEXAS REGIONAL WEATHER ROUNDUP
NATIONAL WEATHER SERVICE CORPUS CHRISTI TX
800 PM CDT THU AUG 27 2015


TXZ229>244-280200-
...CORPUS CHRISTI AREA OBSERVATIONS...

CITY           SKY/WX    TMP DP  RH WIND       PRES   REMARKS
CORPUS CHRISTI MOCLDY    85  64  49 SE9       29.97S
NAS CORPUS CHR MOCLDY    80  67  64 SE9       29.98R
ROCKPORT       PTCLDY    83  66  56 S7        29.97S
KINGSVILLE NAS MOCLDY    84  67  56 SE8       29.98R
ALICE          CLEAR     83  66  56 SE12      29.97R
FALFURRIAS     CLEAR     84  63  49 SE8       29.98R
$$

...VICTORIA AREA OBSERVATIONS...

CITY           SKY/WX    TMP DP  RH WIND       PRES   REMARKS
VICTORIA       PTCLDY    83  69  62 E5        29.97S
BEEVILLE       FAIR      84  68  57 SE6       29.97R
PLEASANTON     PTCLDY    92  56  29 E5        29.96S HX  90
SAN ANTONIO    MOCLDY    90  61  37 SE13      29.98R HX  90
$$

...LAREDO AREA OBSERVATIONS...

CITY           SKY/WX    TMP DP  RH WIND       PRES   REMARKS
LAREDO         PTCLDY    93  54  26 E9        29.97R HX  90
COTULLA        CLEAR     94  55  26 E6        29.95S HX  92
DEL RIO        CLEAR     94  60  32 SE9       29.93S HX  94
MCALLEN        PTCLDY    88  63  43 E10       29.99R
HEBBRONVILLE   NOT AVBL
$$

...OTHER TEXAS OBSERVATIONS...

CITY           SKY/WX    TMP DP  RH WIND       PRES   REMARKS
BROWNSVILLE    MOCLDY    83  69  62 E12       29.98R
HOUSTON        MOCLDY    80  68  66 CALM      29.97S
COL. STATION   MOCLDY    85  66  53 S5        29.97F
AUSTIN         MOCLDY    88  58  36 E7        29.96S
WACO           MOCLDY    89  58  34 E6        29.97S
FORT WORTH     MOCLDY    89  60  37 SE10      29.96F
WICHITA FALLS  MOCLDY    89  63  41 SE10      29.94F HX  90
LUBBOCK        MOCLDY    89  46  22 S14       30.03S
EL PASO        CLOUDY    91  52  26 SE3       30.05R
$$

...MARINE OBSERVATIONS...

STATION/POSITION TIME  SKY/WX   TEMP    WIND        PRES    VSBY  WAVE   SWELL
                                AIR SEA DIR/SP/G                  HT/PER HT/PER
                 (UTC)          (F)     (DEG/KT/KT) (MB)    (MI)  (FT/S) (FT/S)
PORT ARANSAS     0100            83 87  130/  8/  9 1016.2S
BUOY 90 E PORT A 0050            84 85   70/ 10/ 12 1015.3R         2/ 4
BUOY 45 SE BAFFI 0050            83 85   60/  6/ 10 1015.1R         2/ 6   2/ 6
BUOY 200 E PT IS 0050            85 86   20/ 12/ 14 1014.8R         2/ 5
BUOY 15 E GALVES 0050            84 86  100/  2/  2 1014.5F         1/ 5   2/ 5
$$


USA.gov is the U.S. government's official web portal to all federal, state and local government web resources and services.